Location: 476 Grange Obs.
(45.1420°N, 7.1420°E)
Time: 08:06:40
(UTC+01:00)

ISS - Visible Passes

Search period start: 20 March 2019 00:00
Search period end: 30 March 2019 00:00
Orbit: 406 x 411 km, 51.6° (Epoch: 20 March)

Date Brightness Start Highest point End Pass type
(mag) Time Alt. Az. Time Alt. Az. Time Alt. Az.
20 Mar -1.5 19:43:32 10° SSE 19:43:58 11° SE 19:43:58 11° SE visible
21 Mar -2.8 20:26:39 10° SW 20:28:53 34° S 20:28:53 34° S visible
22 Mar -2.7 19:36:06 10° SSW 19:38:55 26° SE 19:40:47 16° E visible
22 Mar -1.6 21:12:04 10° WSW 21:13:34 24° W 21:13:34 24° W visible
23 Mar -3.8 20:20:57 10° WSW 20:24:15 83° NNW 20:25:14 42° NE visible
24 Mar -3.7 19:29:59 10° SW 19:33:13 59° SE 19:36:29 10° ENE visible
24 Mar -2.1 21:06:54 10° W 21:09:28 32° NW 21:09:28 32° NW visible
25 Mar -2.8 20:15:35 10° W 20:18:46 44° NNW 20:20:47 19° NE visible
25 Mar -0.4 21:53:03 10° WNW 21:53:32 13° NW 21:53:32 13° NW visible
26 Mar -3.5 19:24:21 10° WSW 19:27:38 66° NNW 19:30:56 10° ENE visible
26 Mar -2.0 21:01:44 10° WNW 21:04:36 26° N 21:04:43 26° N visible
27 Mar -2.2 20:10:22 10° WNW 20:13:21 30° NNW 20:15:48 13° NE visible
27 Mar -0.7 21:47:39 10° NW 21:48:33 16° NW 21:48:33 16° NW visible
28 Mar -2.5 19:19:00 10° W 19:22:07 38° NNW 19:25:15 10° NE visible
28 Mar -2.0 20:56:27 10° WNW 20:59:15 25° N 20:59:33 25° N visible
29 Mar -1.9 20:05:08 10° WNW 20:07:57 26° N 20:10:30 12° NE visible
29 Mar -1.0 21:42:03 10° NW 21:43:14 19° NW 21:43:14 19° NW visible
